Details From AYPY - Port Moresby Jacksons Intl
To AGGH - Honiara Intl
Flight Number -
Tags Decoded
Created
Modified
Stats Distance 770 nm / 1,426 km
Max Altitude 0 ft / 0 m
Waypoints 7
Social Downloads 1
Likes 0
Share VATSIM

Download

Looking for another format? Having issues loading an existing format? Contact us
Advertisement - Login to hide

Notes

Decoded

Route

AYPY PY058 PY013 GUVOG NIPOK KOPAU AGGH

ID Type Via Altitude Latitude Longitude Leg Dist Tot Dist Heading (true) Name
O AYPY APT - 0 ft / 0 m -9.43471˚ 147.21302˚ - 0 nm - -
PY058 FIX - 0 ft / 0 m -9.54443˚ 147.28271˚ 7 nm 7 nm 148° / 148° -
PY013 FIX - 0 ft / 0 m -9.63391˚ 147.33699˚ 6 nm 14 nm 149° / 149° -
GUVOG FIX - 0 ft / 0 m -10.15833˚ 152.36167˚ 298 nm 312 nm 96° / 96° -
NIPOK FIX - 0 ft / 0 m -9.92833˚ 155.00000˚ 156 nm 469 nm 85° / 85° -
KOPAU FIX - 0 ft / 0 m -9.53167˚ 159.60667˚ 273 nm 743 nm 85° / 85° -
O AGGH APT - 0 ft / 0 m -9.43174˚ 160.04547˚ 26 nm 770 nm 77° / 77° HONIARA INTL

Altitude Profile

Advertisement - Login to hide

Weather


0- 5 10 15 20 25 30 35+ Temperature / ° C

Clouds and Precipitation
Forecast for 2018-05-20 12:00 UTC. Updated 4 hours ago

Ground ~20,000 ft ~40,000 ft Winds

AYPY

Details ICAO AYPY (POM)
Name Port Moresby Jacksons Intl
Region Papua New Guinea
Timezone Pacific/Port_Moresby (UTC+10.0)
Stats Elevation 146 ft / 45 m (AMSL)
Location -9.442079° 147.219200°
Runways 2
Magnetic Variation 5.885° E

METAR

AYPY 201400Z 11002KT 9999 FEW030 26/26 Q1010

Decode

TAF

TAF AYPY 201027Z 2012/2112 16006KT 9999 SCT040 BKN140 FM201800 0000KT 9999 BKN035 T27 26 25 25 Q1009 1008 1006 1007=

Decode

Departure Runways

ID Width Length Bearing (true) Bearing (mag) Surface Threshold Offset Overrun Length
14L 148 ft / 45 m 9,077 ft / 2,767 m 148.61° 142.73° Asphalt 0 ft / 0 m 200 ft / 61 m
14R 148 ft / 45 m 6,802 ft / 2,073 m 148.65° 142.77° Asphalt 0 ft / 0 m 0 ft / 0 m
32L 148 ft / 45 m 6,802 ft / 2,073 m 328.65° 322.77° Asphalt 0 ft / 0 m 0 ft / 0 m
32R 148 ft / 45 m 9,077 ft / 2,767 m 328.61° 322.73° Asphalt 0 ft / 0 m 200 ft / 61 m

AGGH

Details ICAO AGGH (HIR)
Name HONIARA INTL
Region Solomon Islands
Timezone Pacific/Guadalcanal (UTC+11.0)
Stats Elevation 28 ft / 9 m (AMSL)
Location -9.428258° 160.054534°
Runways 1
Magnetic Variation 8.678° E

METAR

AGGH 201400Z 00000KT 9999 FEW015 FEW016CB SCT100 BKN300 24/24 Q1010

Decode

TAF

TAF AGGH 201110Z 2012/2112 09010KT 9999 FEW016 PROB40 INTER 2012/2018 5000 TSSH BKN014 FEW015CB T 24 23 24 25 Q 1012 1010 1010 1012

Decode

Destination Runways

ID Width Length Bearing (true) Bearing (mag) Surface Threshold Offset Overrun Length
06 148 ft / 45 m 7,232 ft / 2,204 m 67.90° 59.22° Asphalt 0 ft / 0 m 184 ft / 56 m
24 148 ft / 45 m 7,232 ft / 2,204 m 247.90° 239.22° Asphalt 0 ft / 0 m 171 ft / 52 m

Popular Alternatives